Simultaneous Nadir Overpasses (SNOs) Predictions

Prediction of SNOs between GOES-16 and NOAA-19 Satellite Orbit:

Table of predicted SNOs for the next 14.0 days since TLE Epoch: 9/23/2023
Index Date Time (GOES-16) GOES-16 Lat,Lon NOAA-19 Lat,Lon Distance(km) Time Diff (sec)
1 09/23/2023 14:03:30 -0.05, -75.22 0.86, -79.20 453.71 80
2 09/24/2023 13:51:25 -0.05, -75.22 0.20, -76.25 117.53 80
3 09/25/2023 13:41:59 -0.04, -75.23 -0.47, -73.31 218.83 80
4 09/28/2023 01:59:18 0.05, -75.23 -0.61, -78.06 322.43 80
5 09/29/2023 01:49:53 0.05, -75.24 0.08, -75.11 14.83 80
6 09/30/2023 01:37:47 0.05, -75.26 0.77, -72.17 352.28 80
7 10/02/2023 13:55:05 -0.05, -75.30 0.31, -76.92 183.93 80
8 10/03/2023 13:45:40 -0.04, -75.32 -0.38, -73.98 153.91 80
9 10/04/2023 13:33:33 -0.04, -75.34 -1.01, -71.02 491.80 80
10 10/06/2023 02:05:35 0.04, -75.35 -0.76, -78.71 383.54 80
